Location: American Medical Response
(33.3472°N, 96.5511°W)
Time: 23:08:18
(UTC+00:00)

SL-4 R/B - Pass Details

Date: 12 July 2022
Orbit: 425 x 653 km, 51.6° (Epoch: 18 August)

Event Time Altitude Azimuth Distance (km) Brightness Sun altitude
Rises 03:38:47 0° 260° (W) 2,376 5.7 -21.0°
Reaches altitude 10° 03:41:18 10° 279° (W) 1,510 5.0 -21.4°
Maximum altitude 03:43:48 19° 327° (NNW) 1,086 4.4 -21.7°
Drops below altitude 10° 03:46:19 10° 15° (NNE) 1,534 4.7 -22.1°
Sets 03:48:54 0° 34° (NE) 2,429 5.5 -22.4°
